Find Starlink 35712

NORAD ID: 66215 Int'l Des: 2025-244 Owner: SPXS Country: US Constellation: starlink operational
LEOCIRCULAR

当前视图

正在加载3D地球...

About Starlink 35712

Starlink 35712 (NORAD 66215) is a starlink constellation satellite (v2 mini) launched Oct 28, 2025 by SPXS of US. It operates in LEO, CIRCULAR orbit with a mass of 575.00 kg.

即将过境

Passes for default location (London). Set your location on the main map for personalized predictions.

高度历史

Loading altitude history...

两行轨道根数

1 66215U 25244K 26237.08383317 .00019407 00000-0 58378-3 0 9995
2 66215 53.1577 165.4517 0000647 90.5505 269.5572 15.34412924 47473
Epoch: Aug 25, 2026 • Age: 24 hours

当前状态

高度 462.8 km
远地点 / 近地点 N/A
速度 7.64 km/s
星下点 19.88°N, 41.21°W
发射日期 Oct 28, 2025
运行时间 0.8 years
类型 internet

技术详情

分类 Payload
质量 575.00 kg
干质量 530.00 kg
总质量 575.00 kg
长度 0.30 m
直径 4.10 m
跨度 29.00 m
形状 Box + pan
制造商 SPXS
平台类型 Starlink V2MO
阶段状态 In Orbit
所有者/国家 SPXS/US

Most Searched